FW3788 Weather Reports


Display with metric or nautical units.
time (UTC)temp
F
wind
direction
speed
MPH
gust
MPH
rain 1hr
in
rain 24hr
in
rain mn
in
humidity
%
barometer
mb
20260505054522 47 320 0.0 0.0 0.00 0.05 0.05 75 1013.7
20260505054020 47 320 0.0 0.0 0.00 0.05 0.05 74 1013.8
20260505053620 47 320 0.0 0.0 0.00 0.05 0.05 74 1013.7
20260505053020 47 320 0.0 5.0 0.00 0.05 0.05 75 1013.7
20260505052519 47 320 0.0 5.0 0.00 0.05 0.05 75 1013.8
20260505052019 47 318 0.0 5.0 0.00 0.05 0.05 75 1013.9
20260505051520 48 317 0.0 7.0 0.00 0.05 0.05 77 1013.8
20260505051019 48 316 0.0 7.0 0.00 0.05 0.05 77 1013.9
20260505050519 48 287 1.0 5.0 0.00 0.05 0.05 79 1014.0
20260505041520 48 284 0.0 0.0 0.00 0.05 0.05 80 1013.2
20260505041020 48 284 0.0 0.0 0.00 0.05 0.05 81 1013.2
20260505040526 49 284 0.0 0.0 0.00 0.05 0.05 82 1013.2
20260505040023 48 284 0.0 0.0 0.00 0.05 0.05 82 1013.1
20260505035522 49 284 0.0 0.0 0.00 0.05 0.05 84 1013.0
20260505035020 49 284 0.0 0.0 0.00 0.05 0.05 85 1013.1
20260505034519 49 284 0.0 0.0 0.00 0.05 0.05 87 1013.0
20260505034022 49 284 0.0 0.0 0.00 0.05 0.05 87 1013.0
20260505033520 49 284 0.0 0.0 0.00 0.05 0.05 87 1013.0
20260505033020 49 284 0.0 0.0 0.00 0.05 0.05 87 1012.9
20260505032520 49 284 0.0 0.0 0.00 0.05 0.05 86 1013.0
20260505032023 49 284 0.0 0.0 0.00 0.05 0.05 86 1012.9
20260505031519 49 284 0.0 0.0 0.00 0.05 0.05 86 1012.9
20260505031019 49 284 0.0 0.0 0.00 0.05 0.05 86 1012.9
20260505030519 49 284 0.0 0.0 0.00 0.05 0.05 85 1012.8
20260505030019 49 284 0.0 0.0 0.00 0.05 0.05 85 1012.8
20260505025522 49 284 0.0 0.0 0.00 0.05 0.05 83 1012.8
20260505025019 49 284 0.0 0.0 0.00 0.05 0.05 86 1012.8
20260505024520 49 284 0.0 0.0 0.00 0.05 0.05 86 1012.8
20260505024019 49 284 0.0 0.0 0.00 0.05 0.05 85 1012.8
20260505023519 49 284 0.0 0.0 0.00 0.05 0.05 85 1012.7
20260505023021 50 284 0.0 0.0 0.00 0.05 0.05 85 1012.7
20260505022519 50 284 0.0 0.0 0.00 0.05 0.05 84 1012.7
20260505022020 50 284 0.0 0.0 0.00 0.05 0.05 81 1012.7
20260505021520 49 284 0.0 0.0 0.00 0.05 0.05 78 1012.6
20260505021019 50 284 0.0 0.0 0.00 0.05 0.05 82 1012.7
20260505020519 50 284 0.0 0.0 0.01 0.05 0.05 84 1012.7
20260505020030 50 284 0.0 0.0 0.01 0.05 0.05 85 1012.7
20260505015519 50 284 0.0 0.0 0.01 0.05 0.05 84 1012.7
20260505015020 49 284 0.0 0.0 0.02 0.05 0.05 80 1012.7
20260505014532 49 284 0.0 0.0 0.02 0.05 0.05 83 1012.8
20260505014019 50 284 0.0 0.0 0.02 0.05 0.05 84 1012.9
20260505013519 49 284 0.0 0.0 0.03 0.05 0.05 83 1012.9
20260505013027 49 284 0.0 0.0 0.03 0.05 0.05 82 1013.0
20260505012523 50 284 0.0 0.0 0.04 0.05 0.05 83 1013.0
20260505012020 50 284 0.0 0.0 0.04 0.05 0.05 82 1013.0
20260505011528 50 284 0.0 0.0 0.04 0.05 0.05 80 1013.2
20260505011019 50 284 0.0 0.0 0.03 0.04 0.04 79 1013.2
20260505010520 50 284 0.0 0.0 0.03 0.04 0.04 80 1013.1
20260505010019 50 284 0.0 0.0 0.04 0.04 0.04 78 1013.2
20260505005520 50 284 0.0 0.0 0.04 0.04 0.04 77 1013.2
20260505005020 50 284 0.0 0.0 0.03 0.03 0.03 79 1013.1
20260505004525 50 284 0.0 0.0 0.03 0.03 0.03 77 1013.1
20260505004020 50 284 0.0 5.0 0.02 0.02 0.02 77 1013.1
20260505003519 51 283 0.0 6.0 0.02 0.02 0.02 76 1013.1
20260505003032 51 327 2.0 7.0 0.02 0.02 0.02 74 1013.0
20260505002519 51 316 1.0 8.0 0.01 0.01 0.01 75 1013.0
20260505002020 51 321 1.0 8.0 0.01 0.01 0.01 75 1012.9
20260505001521 51 285 0.0 1.0 0.01 0.01 0.01 75 1012.9
20260505001020 52 283 0.0 9.0 0.01 0.01 0.01 75 1012.8
20260505000519 52 301 4.0 9.0 0.01 0.01 0.01 71 1012.9
20260505000024 52 328 3.0 8.0 0.00 0.00 0.00 72 1012.8
20260504235520 52 288 0.0 3.0 0.00 0.00 0.00 75 1012.8
20260504235020 52 293 0.0 2.0 0.00 0.00 0.00 75 1012.7
20260504234621 52 291 0.0 4.0 0.00 0.00 0.00 75 1012.6
20260504234021 52 293 0.0 4.0 0.00 0.00 0.00 74 1012.6
20260504233520 52 296 0.0 6.0 0.00 0.00 0.00 73 1012.6
20260504233020 53 298 0.0 6.0 0.00 0.00 0.00 71 1012.6
20260504232522 53 318 0.0 7.0 0.00 0.00 0.00 69 1012.6
20260504232019 54 338 4.0 7.0 0.00 0.00 0.00 67 1012.6
20260504231520 54 321 1.0 7.0 0.00 0.00 0.00 64 1012.7
20260504231119 55 318 1.0 5.0 0.00 0.00 0.00 61 1012.7
20260504222520 57 293 0.0 5.0 0.00 0.00 0.00 52 1012.7
20260504222019 57 302 0.0 6.0 0.00 0.00 0.00 52 1012.8
20260504221521 57 323 1.0 8.0 0.00 0.00 0.00 51 1012.8
20260504221019 57 332 0.0 8.0 0.00 0.00 0.00 51 1012.9
20260504220520 58 335 1.0 7.0 0.00 0.00 0.00 50 1012.8
20260504220020 58 324 2.0 7.0 0.00 0.00 0.00 49 1012.8
20260504215521 58 341 0.0 2.0 0.00 0.00 0.00 49 1012.8
20260504215024 58 339 0.0 0.0 0.00 0.00 0.00 49 1012.8
20260504210020 59 15 2.0 7.0 0.00 0.00 0.00 47 1012.9
20260504205520 59 305 2.0 6.0 0.00 0.00 0.00 46 1012.9
20260504205019 59 350 0.0 2.0 0.00 0.00 0.00 41 1012.9
20260504204520 59 350 0.0 3.0 0.00 0.00 0.00 41 1012.8
20260504204019 59 359 0.0 5.0 0.00 0.00 0.00 42 1012.8
20260504203522 59 50 0.0 5.0 0.00 0.00 0.00 42 1012.9
20260504203020 60 359 0.0 2.0 0.00 0.00 0.00 43 1012.8
20260504202520 60 339 0.0 5.0 0.00 0.00 0.00 41 1012.8
20260504195019 60 154 0.0 2.0 0.00 0.00 0.00 41 1013.0
20260504194519 60 154 0.0 2.0 0.00 0.00 0.00 40 1013.0
20260504194019 60 147 0.0 10.0 0.00 0.00 0.00 40 1013.0
20260504193518 59 146 0.0 10.0 0.00 0.00 0.00 40 1013.0
20260504193021 59 163 2.0 10.0 0.00 0.00 0.00 39 1013.1
20260504192519 59 162 7.0 10.0 0.00 0.00 0.00 39 1013.0
20260504192120 60 199 2.0 10.0 0.00 0.00 0.00 39 1013.0
20260504191518 59 55 0.0 1.0 0.00 0.00 0.00 39 1013.0
20260504191019 59 72 0.0 10.0 0.00 0.00 0.00 38 1013.1
20260504190519 59 180 6.0 13.0 0.00 0.00 0.00 36 1013.1
20260504190019 61 165 0.0 4.0 0.00 0.00 0.00 37 1013.1
20260504185519 59 164 0.0 7.0 0.00 0.00 0.00 37 1013.1
20260504185019 59 164 0.0 12.0 0.00 0.00 0.00 40 1013.2
20260504184526 58 172 5.0 12.0 0.00 0.00 0.00 37 1013.2
20260504184019 58 146 1.0 15.0 0.00 0.00 0.00 38 1013.3
20260504183519 58 176 9.0 17.0 0.00 0.00 0.00 39 1013.3
20260504183019 58 185 9.0 17.0 0.00 0.00 0.00 38 1013.3
20260504182519 58 192 1.0 12.0 0.00 0.00 0.00 38 1013.4
20260504182018 59 181 8.0 10.0 0.00 0.00 0.00 39 1013.3
20260504181519 61 160 2.0 8.0 0.00 0.00 0.00 42 1013.4
20260504181019 60 324 0.0 5.0 0.00 0.00 0.00 42 1013.4
20260504180519 59 320 0.0 5.0 0.00 0.00 0.00 44 1013.4
20260504180118 59 200 0.0 4.0 0.00 0.00 0.00 44 1013.5
20260504175519 59 306 0.0 4.0 0.00 0.00 0.00 43 1013.4
20260504175024 58 277 0.0 3.0 0.00 0.00 0.00 46 1013.3
20260504174519 58 261 0.0 6.0 0.00 0.00 0.00 44 1013.3
20260504174019 57 256 0.0 8.0 0.00 0.00 0.00 49 1013.3
20260504173520 57 308 3.0 9.0 0.00 0.00 0.00 46 1013.4
20260504173018 57 298 1.0 9.0 0.00 0.00 0.00 49 1013.3
20260504172518 56 285 3.0 8.0 0.00 0.00 0.00 50 1013.3
20260504172018 56 287 1.0 6.0 0.00 0.00 0.00 49 1013.3
20260504171522 55 323 2.0 8.0 0.00 0.00 0.00 50 1013.3
20260504171020 56 332 2.0 8.0 0.00 0.00 0.00 49 1013.3
20260504170520 56 328 0.0 3.0 0.00 0.00 0.00 49 1013.4
20260504151019 49 126 0.0 0.0 0.00 0.00 0.00 65 1013.6
20260504150521 48 170 0.0 0.0 0.00 0.00 0.00 67 1013.6
20260504141016 42 170 0.0 0.0 0.00 0.00 0.00 80 1013.4
20260504140517 41 170 0.0 0.0 0.00 0.00 0.00 80 1013.4
20260504130514 43 170 0.0 0.0 0.00 0.00 0.00 77 1012.9
20260504110515 46 189 0.0 0.0 0.00 0.00 0.00 75 1013.2
20260504100514 47 295 0.0 1.0 0.00 0.00 0.00 71 1013.1
20260504081515 46 295 0.0 0.0 0.00 0.00 0.00 74 1013.1
20260504081015 46 295 0.0 0.0 0.00 0.00 0.00 74 1013.2
20260504080515 46 295 0.0 0.0 0.00 0.00 0.00 75 1013.0